Location: Betpouey
(42.8833°N, 0.0333°E)
Time: 22:20:49
(UTC+00:00)

USA 215 - Pass Details

Date: 01 December 2020
Orbit: 1098 x 1110 km, 123.0° (Epoch: 14 January)

Event Time Altitude Azimuth Distance (km) Brightness Sun altitude
Exits shadow 16:59:20 - 67° (ENE) 3,234 5.0 -6.2°
Reaches altitude 10° 17:00:13 10° 72° (ENE) 2,974 4.9 -6.3°
Maximum altitude 17:05:24 25° 124° (SE) 2,089 4.5 -7.2°
Drops below altitude 10° 17:10:33 10° 177° (S) 2,963 5.8 -8.1°
Sets 17:13:34 0° 190° (S) 3,917 6.6 -8.6°
